Theta_e
334 336 339 341 343 342 341 339 340 337 337 336 335 336 336 338 337 336 337 337 338 338 337 338 342 334 333 335 344 339 337 337 338 338 339 338 334 331 331 331 333 333 334
334 337 342 343 344 344 345 343 338 338 337 334 340 339 337 337 346 347 339 343 342 342 342 341 339 342 342 336 334 338 338 340 339 341 340 336 337 332 333 335 335 335 334
332 339 341 343 343 342 344 342 338 339 332 337 339 339 339 339 338 337 336 335 337 336 336 334 336 338 337 336 336 336 335 334 333 336 337 336 333 333 331 330 331 331 332
332 339 341 342 342 343 340 340 339 331 340 338 337 339 340 337 336 332 331 339 341 340 332 335 337 342 342 342 342 343 339 331 328 335 330 331 330 331 331 332 332 333 332
332 338 340 342 341 341 339 338 334 334 337 337 339 340 337 329 334 321 320 323 332 335 333 340 342 342 341 340 339 337 337 335 334 333 338 333 338 335 334 332 331 331 332
333 337 340 341 341 340 342 338 335 339 340 340 339 331 325 326 321 322 318 317 320 330 333 339 336 338 338 338 336 333 331 333 332 334 335 340 339 334 336 338 333 331 335
334 337 338 341 340 339 334 336 338 339 338 336 326 324 326 329 336 342 330 317 319 325 333 335 339 338 336 335 333 327 326 326 326 323 322 326 329 326 327 336 329 327 332
337 337 339 340 340 338 334 339 340 338 336 333 326 331 334 334 332 330 322 320 322 324 332 337 336 335 333 331 329 326 322 322 324 322 322 321 321 322 323 323 322 323 324
340 335 339 339 341 335 334 340 339 337 335 330 331 335 336 335 334 332 332 331 332 334 335 336 335 334 332 331 329 327 325 324 324 325 324 324 324 324 325 324 323 323 323
340 339 336 339 340 336 338 339 340 335 334 329 334 338 340 339 337 335 334 335 335 335 335 335 335 334 333 331 330 330 330 329 329 329 328 329 329 330 330 329 329 328 328
341 340 339 340 341 336 336 339 333 334 333 329 336 340 343 345 346 345 343 342 339 336 335 335 336 337 338 338 333 331 331 331 331 331 331 332 332 332 333 333 333 333 333
344 341 342 339 341 336 340 335 334 330 330 330 338 342 342 346 346 346 346 348 349 349 345 339 338 340 340 340 342 340 336 334 333 332 332 332 333 333 333 333 334 334 334
344 344 343 339 340 338 336 334 334 329 329 330 337 343 344 344 346 346 348 349 349 349 349 347 344 344 345 344 342 343 343 344 342 340 336 337 335 334 334 334 335 335 335
341 343 342 339 339 338 334 336 344 339 335 329 336 344 345 343 344 344 347 347 348 348 348 348 348 348 347 347 345 344 344 345 346 346 346 344 344 344 339 337 337 336 337
338 342 342 340 338 337 340 338 345 344 335 329 336 341 343 342 344 347 348 348 347 347 347 347 348 348 348 347 346 346 346 346 345 346 347 347 347 345 346 344 342 343 342
337 339 342 339 337 336 344 344 342 346 344 330 332 339 342 341 344 347 348 347 347 346 347 348 348 347 347 346 346 347 347 347 347 345 346 346 346 346 346 346 347 345 348
338 338 339 337 336 337 341 343 344 341 343 336 327 337 340 340 343 345 346 347 346 346 345 348 348 348 347 346 347 347 348 348 347 348 347 347 346 345 345 346 347 348 347
340 339 339 336 336 343 346 346 345 345 340 340 333 337 338 336 338 342 343 345 344 345 346 347 348 349 348 347 348 348 347 347 347 348 348 348 347 346 346 346 347 347 348
345 341 339 336 335 337 341 343 347 346 346 345 344 343 343 344 341 341 339 340 343 345 346 347 348 349 348 348 348 349 348 347 347 347 347 347 348 347 346 346 346 347 348
343 345 340 337 337 339 343 345 346 347 347 347 346 346 345 344 342 342 341 339 341 342 345 346 347 347 348 348 347 347 347 347 347 347 346 346 347 347 347 346 346 346 345
344 343 345 343 341 343 344 345 345 346 347 346 345 343 346 344 343 343 340 338 340 340 342 345 346 347 347 347 347 345 345 346 346 347 347 346 346 346 345 345 346 346 343
344 344 343 345 345 344 345 346 345 346 345 346 345 345 346 345 344 344 339 336 340 340 340 342 344 344 346 345 345 347 349 345 345 347 347 347 346 346 346 346 347 346 346
344 344 344 344 345 345 346 347 346 347 346 346 345 345 346 345 344 344 345 337 340 341 340 340 341 343 344 344 344 344 351 349 349 347 347 346 348 348 349 348 347 346 343
343 344 344 345 346 346 346 346 345 344 344 342 342 344 345 344 345 343 344 345 340 342 342 343 342 342 342 343 342 342 349 350 350 350 347 347 348 347 347 347 346 345 341
343 344 344 345 346 346 346 346 345 344 344 345 344 340 344 345 345 345 343 344 345 344 343 341 342 345 343 342 343 347 347 351 351 349 350 349 349 348 347 346 346 341 342
343 344 345 345 345 347 347 346 346 345 345 346 345 344 342 342 344 344 344 344 345 345 345 346 346 342 345 345 344 346 346 350 351 351 349 347 346 345 345 343 341 342 342
Wind_Speed
18 16 18 15 15 17 18 18 17 18 18 18 17 18 18 17 16 16 15 15 14 14 15 16 16 16 14 15 15 14 15 14 14 13 13 12 12 11 11 11 10 11 10
20 17 16 15 16 16 16 17 17 18 17 16 17 17 17 16 15 14 13 13 13 12 13 13 14 14 13 14 14 14 13 12 12 12 10 9 10 10 10 9 9 10 9
20 18 17 16 17 16 16 16 17 16 16 16 16 15 15 13 12 12 11 11 10 10 10 11 13 14 14 15 15 14 13 12 9 9 8 7 8 8 7 7 7 7 7
20 19 18 16 17 16 16 16 16 16 15 14 14 14 13 12 12 10 10 10 10 11 11 12 13 12 12 12 10 9 10 11 10 8 7 6 7 7 7 7 6 6 6
20 18 17 16 16 16 16 16 14 15 14 13 12 13 12 11 11 10 10 10 11 11 12 13 13 12 12 11 10 10 8 8 9 9 8 7 7 7 7 6 5 5 5
20 18 17 16 16 15 15 14 15 14 13 13 13 13 13 13 14 14 12 12 12 13 15 14 13 13 12 10 9 9 9 8 7 7 6 6 5 6 5 5 5 5 6
20 19 17 15 17 14 14 14 14 13 13 14 15 15 16 16 16 14 12 14 15 16 16 15 14 13 12 11 11 11 11 10 9 9 7 5 4 4 5 4 4 5 5
19 19 16 16 16 15 15 14 13 12 13 15 17 18 18 18 19 18 18 18 18 19 18 15 14 13 13 12 13 14 13 10 11 11 10 8 8 8 8 7 6 6 6
18 18 17 17 16 14 15 14 12 12 13 16 18 19 20 21 22 22 22 22 21 20 18 15 13 12 13 14 14 14 13 12 12 11 10 10 11 11 11 10 9 9 8
18 19 19 18 17 16 14 12 11 12 14 17 20 21 21 22 21 22 21 20 18 16 14 12 12 12 13 13 14 14 13 12 12 11 10 11 12 13 12 11 10 10 9
18 21 22 21 18 16 14 12 10 12 14 18 20 20 19 19 18 20 18 15 12 10 8 8 8 10 11 14 14 13 12 13 11 10 11 11 12 12 11 11 10 10 10
19 21 21 23 19 17 15 12 11 12 15 19 19 17 15 15 15 13 13 11 8 5 5 5 6 9 10 10 11 12 13 12 10 10 10 10 10 11 11 10 9 9 9
19 21 22 24 19 17 15 13 12 14 17 19 19 17 16 12 11 12 13 12 12 10 6 4 6 7 8 9 8 7 9 10 11 10 10 10 10 10 10 9 9 8 8
18 22 26 26 21 18 14 14 14 13 15 17 19 17 15 13 10 9 10 10 10 9 7 5 4 5 6 7 7 6 6 6 6 8 9 9 9 10 9 9 8 8 7
18 21 27 27 22 18 16 16 13 12 12 15 19 17 13 10 9 8 8 7 6 5 4 3 2 4 6 6 6 5 6 5 4 3 5 6 6 6 7 8 8 8 7
18 20 25 25 23 18 19 17 11 11 10 11 18 17 12 8 8 8 7 4 2 2 1 1 5 7 7 4 3 3 4 4 5 4 4 5 5 5 5 6 7 6 7
18 23 27 24 22 18 17 14 12 10 10 10 16 17 13 10 8 8 7 3 2 3 3 3 6 9 7 7 7 7 6 7 9 7 6 6 6 6 7 8 9 9 9
18 21 30 27 20 19 16 15 12 10 10 8 14 10 10 10 10 10 8 8 6 6 6 6 6 4 4 6 8 9 9 10 13 11 9 9 8 7 8 9 10 13 14
17 20 26 28 22 18 17 15 11 12 12 10 10 10 7 7 9 10 12 13 11 9 8 9 7 7 7 8 10 12 12 15 17 15 12 12 12 12 11 12 13 14 16
19 18 20 24 22 19 17 16 15 14 15 15 12 11 7 8 10 14 14 15 14 13 11 11 10 10 12 14 15 16 17 18 20 16 15 15 15 15 15 14 13 14 11
23 21 21 22 23 20 19 18 19 17 15 16 14 13 12 10 11 14 15 16 16 16 16 15 14 14 13 16 20 20 18 18 18 17 15 13 14 14 13 9 9 10 11
26 25 24 22 22 21 20 19 18 16 16 17 17 16 15 13 13 12 13 17 17 18 18 17 17 18 18 17 19 20 17 18 10 12 11 14 14 8 5 7 8 11 16
29 27 25 23 22 22 21 21 20 21 22 21 22 21 19 17 15 15 14 16 19 19 19 20 21 21 21 19 18 14 10 7 19 8 7 6 4 3 5 8 11 15 19
26 21 22 23 21 23 20 20 21 20 20 20 24 25 24 23 21 19 18 17 20 22 21 20 21 22 23 22 20 17 13 14 15 14 14 13 14 9 12 13 15 17 19
25 24 24 23 22 23 23 21 22 23 22 19 18 24 28 27 27 25 23 21 21 19 20 22 27 26 24 24 22 19 19 19 17 17 20 21 20 19 18 17 18 20 18
24 24 24 22 24 26 26 26 26 26 24 24 21 21 23 28 30 30 33 29 25 25 26 24 23 27 29 27 25 24 22 21 22 20 23 26 27 29 28 28 26 25 21
Wind_Direction
147 132 120 120 119 117 118 118 116 112 112 112 109 107 109 105 101 100 100 99 96 94 92 87 87 90 93 95 91 95 84 85 87 89 89 89 90 93 94 89 97 102 103
144 134 126 121 121 121 122 119 117 113 113 112 112 108 104 100 95 92 95 95 93 94 91 93 94 99 100 97 95 89 87 90 92 92 90 83 82 86 87 95 97 98 100
143 138 126 125 125 123 119 120 117 114 112 112 109 105 98 92 89 90 92 93 98 99 98 98 98 97 97 96 99 92 83 86 84 84 80 75 78 85 91 100 101 99 100
145 140 128 128 127 123 123 121 120 117 116 113 109 98 92 90 87 89 100 108 104 97 104 102 104 100 95 98 94 85 82 74 73 81 75 78 84 87 89 87 95 98 102
148 141 133 132 131 125 124 121 119 119 113 107 99 95 92 93 99 92 103 113 117 108 111 105 101 100 88 84 80 76 74 74 72 76 79 87 84 86 93 84 100 101 102
153 147 141 137 136 128 125 124 123 119 107 99 96 94 94 90 87 79 86 98 116 118 117 111 103 93 84 78 73 74 72 74 72 73 85 89 83 80 90 89 89 102 101
159 151 148 141 139 131 129 127 126 118 104 100 95 95 93 87 86 85 76 90 106 117 119 109 100 92 83 72 67 66 63 64 69 72 83 82 81 79 102 123 101 106 115
167 158 152 148 146 140 133 130 132 117 104 103 100 98 92 88 85 86 88 93 103 112 114 109 99 84 72 70 66 62 58 64 70 74 77 82 89 93 92 88 81 86 92
174 170 164 156 150 141 139 142 133 123 110 108 107 103 98 93 86 86 88 92 99 104 105 100 89 76 67 64 65 66 62 64 71 73 79 82 85 87 85 84 78 78 79
177 179 174 163 153 150 150 143 139 126 118 118 117 110 106 101 94 90 89 91 95 96 91 86 78 68 67 66 67 70 68 68 73 77 79 81 81 79 78 80 77 77 79
181 180 178 166 161 156 153 149 145 133 129 131 128 121 115 104 95 93 90 85 84 86 84 74 71 68 63 63 64 65 69 69 71 77 79 79 81 79 77 78 77 76 74
167 175 171 168 165 156 158 153 152 141 140 140 136 130 123 111 98 88 89 88 72 91 102 88 67 67 58 56 61 61 62 63 65 69 75 77 79 76 71 71 70 73 73
163 168 173 169 165 162 159 156 144 137 143 148 143 137 122 112 96 88 75 71 84 87 76 59 55 50 48 38 41 45 56 59 57 58 64 66 66 66 64 64 61 61 61
156 165 168 172 171 167 162 156 148 140 146 152 151 146 138 126 110 117 103 104 88 78 69 64 39 25 14 9 18 11 38 52 56 53 47 48 55 56 52 51 51 51 52
154 162 169 172 170 166 160 156 152 151 144 158 162 159 152 139 143 132 121 114 93 76 59 59 4 344 338 346 8 34 37 29 30 26 32 25 28 35 39 37 39 37 35
162 161 170 166 167 164 159 157 161 163 156 164 173 172 171 165 150 152 150 151 120 150 157 255 295 293 298 311 344 357 7 14 19 6 356 2 1 349 349 357 6 7 5
166 163 165 165 165 162 164 167 166 171 179 171 178 187 191 191 188 185 189 207 262 253 261 285 312 299 291 295 306 310 324 334 331 326 326 331 342 341 331 329 334 334 340
166 170 173 169 166 173 172 169 169 176 180 183 190 194 208 215 225 227 236 246 271 267 251 267 302 316 306 280 307 318 320 325 326 311 303 307 316 327 329 328 325 321 317
181 170 181 188 194 190 190 191 191 200 202 199 211 224 221 239 247 252 271 257 258 261 260 266 295 326 316 303 298 307 314 311 319 312 306 307 308 309 313 312 314 316 316
196 192 189 195 199 200 202 211 219 218 219 215 219 222 244 251 259 263 267 249 250 258 260 272 288 307 320 320 316 308 301 303 310 308 307 310 309 301 305 306 302 312 315
210 207 205 205 204 206 213 223 230 227 223 223 231 242 250 256 262 288 257 246 255 257 259 268 279 287 298 310 309 295 290 301 305 305 300 298 304 296 308 294 297 318 327
218 215 216 216 216 219 225 234 240 240 244 245 245 249 247 253 261 282 268 249 258 260 262 270 279 286 293 309 323 325 329 314 305 317 306 299 300 299 287 307 321 320 318
223 223 221 222 224 227 232 235 241 243 247 249 248 250 251 258 261 265 272 259 256 260 266 267 277 283 290 293 306 310 320 316 323 329 310 5 352 315 316 314 320 325 321
224 227 228 228 230 233 237 240 245 251 256 266 266 260 259 261 262 261 263 262 260 256 266 272 278 281 280 284 292 294 291 297 309 308 298 296 310 312 316 318 321 328 331
225 229 228 233 236 238 240 246 252 258 261 271 278 266 260 264 268 265 263 262 259 260 267 273 272 275 279 279 283 287 288 287 294 302 305 306 298 302 310 313 317 321 325
226 229 231 235 242 241 242 248 256 262 271 275 281 281 274 267 264 268 266 261 261 262 265 269 279 271 270 276 279 279 284 289 287 292 296 301 304 304 308 309 308 308 309